GW2598 Weather Reports


time (UTC)temp
C
wind
direction
speed
KPH
gust
KPH
rain 1hr
cm
rain 24hr
cm
rain mn
cm
humidity
%
barometer
mb
20260510230057 16 192 3.2 11.3 0.00 0.03 0.00 82 1012.8
20260510224554 16 170 4.8 11.3 0.00 0.28 0.00 80 1012.7
20260510223052 17 197 6.4 14.5 0.00 0.28 0.00 76 1012.6
20260510221553 19 222 4.8 11.3 0.00 0.28 0.00 61 1012.4
20260510220053 19 244 4.8 20.9 0.00 0.28 0.00 62 1012.2
20260510214553 18 336 6.4 16.1 0.00 0.46 0.00 74 1012.2
20260510213055 18 0 1.6 8.0 0.00 0.46 0.00 83 1012.2
20260510211554 18 218 0.0 4.8 0.00 0.46 0.00 81 1012.0
20260510210109 18 184 3.2 8.0 0.00 0.46 0.00 77 1011.9
20260510204553 20 234 1.6 9.7 0.00 0.58 0.00 75 1011.8
20260510203052 20 169 1.6 6.4 0.00 0.58 0.00 71 1011.6
20260510201553 20 0 1.6 4.8 0.00 0.58 0.00 68 1011.6
20260510200054 20 0 1.6 8.0 0.00 0.58 0.00 68 1011.8
20260510194553 20 261 3.2 12.9 0.00 0.71 0.00 68 1011.7
20260510193106 20 185 6.4 12.9 0.00 0.71 0.00 70 1011.7
20260510191559 19 171 9.7 17.7 0.00 0.71 0.00 71 1012.1
20260510190056 19 184 4.8 16.1 0.00 0.71 0.00 73 1012.0
20260510184553 18 143 3.2 16.1 0.00 1.09 0.00 75 1012.3
20260510183054 19 197 6.4 14.5 0.00 1.09 0.00 74 1012.2
20260510181552 19 173 3.2 11.3 0.00 1.09 0.00 74 1012.2
20260510174552 18 153 3.2 11.3 0.00 1.09 0.00 76 1012.2
20260510173052 18 153 4.8 11.3 0.00 1.09 0.00 76 1012.2
20260510171554 18 198 3.2 9.7 0.00 1.09 0.00 77 1012.3
20260510164558 16 220 3.2 11.3 0.00 1.09 0.00 84 1012.5
20260510163056 16 131 3.2 11.3 0.00 1.09 0.00 84 1012.8
20260510161555 15 129 3.2 11.3 0.00 1.09 0.00 88 1012.4
20260510160100 14 0 3.2 11.3 0.00 1.09 0.00 91 1012.6
20260510154603 13 91 3.2 11.3 0.00 1.09 0.00 94 1012.8
20260510153053 13 204 1.6 8.0 0.00 1.09 0.00 96 1013.1
20260510151550 12 245 1.6 11.3 0.00 1.09 0.00 96 1013.2
20260510150052 12 229 1.6 8.0 0.00 1.09 0.00 96 1013.1
20260510144554 12 187 3.2 11.3 0.00 1.09 0.00 96 1013.2
20260510143057 11 213 0.0 6.4 0.00 1.09 0.00 97 1013.1
20260510141553 11 0 3.2 8.0 0.00 1.09 0.00 97 1012.8
20260510140058 11 0 0.0 8.0 0.00 1.09 0.00 97 1012.6
20260510134557 11 0 3.2 8.0 0.00 1.09 0.00 97 1012.6
20260510133059 11 127 3.2 6.4 0.00 1.09 0.00 97 1012.7
20260510131600 11 139 3.2 11.3 0.00 1.09 0.00 97 1012.5
20260510130054 11 0 3.2 6.4 0.00 1.09 0.00 97 1012.4
20260510124610 10 136 0.0 8.0 0.00 1.09 0.00 97 1012.4
20260510123055 10 119 1.6 6.4 0.00 1.09 0.00 97 1012.1
20260510121553 10 88 3.2 6.4 0.00 1.09 0.00 97 1011.8
20260510120058 10 59 1.6 8.0 0.00 1.09 0.00 97 1011.7
20260510114600 10 147 4.8 14.5 0.00 1.09 0.00 96 1011.7
20260510113107 10 151 4.8 14.5 0.00 1.09 0.00 97 1011.6
20260510111617 10 133 3.2 9.7 0.00 1.09 0.00 97 1011.3
20260510110056 10 163 4.8 11.3 0.00 1.09 0.00 96 1011.2
20260510104608 10 0 1.6 11.3 0.00 1.09 0.00 96 1011.3
20260510103058 10 173 1.6 8.0 0.00 1.09 0.00 97 1011.2
20260510101556 10 180 3.2 8.0 0.00 1.09 0.00 97 1011.3
20260510100059 10 167 1.6 8.0 0.00 1.09 0.00 97 1011.4
20260510094557 10 159 1.6 8.0 0.00 1.09 0.00 96 1011.5
20260510093057 10 0 0.0 0.0 0.00 1.09 0.00 97 1011.7
20260510091559 10 0 0.0 0.0 0.00 1.09 0.00 97 1011.6
20260510090119 10 40 3.2 8.0 0.00 1.09 0.00 96 1011.7
20260510084602 10 349 3.2 14.5 0.00 1.09 0.00 96 1011.7
20260510083109 10 0 3.2 14.5 0.00 1.09 0.00 96 1011.4
20260510081553 10 344 3.2 8.0 0.00 1.09 0.00 96 1011.5
20260510080059 10 57 0.0 9.7 0.00 1.09 0.00 96 1010.7
20260510074556 10 0 3.2 8.0 0.00 1.09 0.00 96 1010.7
20260510073057 10 0 0.0 3.2 0.00 1.09 0.00 96 1010.8
20260510071555 10 0 0.0 3.2 0.00 1.09 0.00 96 1010.9
20260510070107 10 0 0.0 3.2 0.00 1.09 0.00 96 1010.9
20260510064608 10 84 4.8 8.0 0.00 1.09 0.00 96 1010.8
20260510063054 10 29 4.8 8.0 0.00 1.09 0.00 96 1010.6
20260510061555 10 0 0.0 8.0 0.00 1.09 0.00 96 1010.5
20260510060054 10 90 1.6 6.4 0.00 1.09 0.00 96 1010.5
20260510054555 10 150 3.2 9.7 0.00 1.09 0.00 96 1010.5
20260510053055 10 0 0.0 6.4 0.00 1.09 0.00 96 1010.4
20260510051605 11 0 1.6 6.4 0.00 1.09 0.00 96 1010.7
20260510050129 11 0 0.0 3.2 0.00 1.09 0.00 96 1010.8
20260510044607 11 0 0.0 3.2 0.00 1.09 0.00 96 1010.7
20260510043054 11 168 1.6 4.8 0.00 1.09 0.00 96 1010.8
20260510041606 11 0 0.0 3.2 0.00 1.09 0.00 96 1010.8
20260510040057 11 0 0.0 0.0 0.00 1.09 0.00 96 1010.6
20260510034602 10 0 0.0 0.0 0.00 1.09 1.09 96 1010.5
20260510033057 10 0 0.0 0.0 0.00 1.09 1.09 96 1010.3
20260510031602 10 0 0.0 0.0 0.00 1.09 1.09 96 1010.4
20260510030105 10 0 0.0 0.0 0.00 1.09 1.09 95 1010.3
20260510024555 10 0 0.0 0.0 0.00 1.09 1.09 95 1010.4
20260510023056 10 0 0.0 0.0 0.00 1.09 1.09 95 1010.6
20260510021552 10 0 0.0 0.0 0.00 1.09 1.09 95 1010.6
20260510020058 10 0 0.0 0.0 0.00 1.09 1.09 95 1010.5
20260510014555 10 0 0.0 0.0 0.00 1.09 1.09 95 1010.6
20260510013100 10 0 0.0 0.0 0.00 1.09 1.09 94 1010.4
20260510011554 11 0 0.0 0.0 0.00 1.09 1.09 94 1010.1
20260510010054 11 0 0.0 0.0 0.00 1.09 1.09 94 1009.9
20260510004555 11 0 0.0 0.0 0.00 1.09 1.09 94 1010.1
20260510003059 11 0 0.0 1.6 0.00 1.09 1.09 94 1009.9
20260510001552 12 0 0.0 4.8 0.03 1.09 1.09 94 1009.9
20260510000058 12 0 0.0 11.3 0.03 1.09 1.09 94 1009.7
20260509234605 12 144 1.6 11.3 0.03 1.09 1.09 94 1009.7
20260509233056 12 132 0.0 4.8 0.03 1.09 1.09 94 1009.8
20260509231611 12 0 0.0 0.0 0.18 1.07 1.07 94 1010.1